Weather History for K0J4 - December, 2012

Change the Weather History Date:

Tuesday, December 25, 2012

  Actual Average (KCEW) Record (KCEW)
Temperature  
Mean Temperature 66 °F -  
Max Temperature 71 °F 57 °F 78 °F (1982)
Min Temperature 60 °F 33 °F 10 °F (1983)
Growing Degree Days 16 (Base 50)    
Moisture  
Dew Point 63 °F    
Average Humidity 88    
Maximum Humidity 100    
Minimum Humidity 78    
Precipitation  
Precipitation 0.97 in - - ()
Sea Level Pressure  
Sea Level Pressure 29.74 in    
Wind  
Wind Speed 10 mph (South)    
Max Wind Speed 23 mph    
Max Gust Speed 41 mph    
Visibility 7 miles    
Events Fog , Rain , Thunderstorm    
Averages and records for this station are not official NWS values.
T = Trace of Precipitation, MM = Missing Value Source: NWS Daily Summary

Daily Weather History Graph

Daily Weather History Graph

Search for Another Location

Airport or City:

Trip Planner

Search our weather history database for the weather conditions in past years. The results will help you decide how hot, cold, wet, or windy it might be!

Date:

Astronomy

Dec. 25, 2012 Rise Set
Actual Time 6:41 AM CST 4:49 PM CST
Civil Twilight 6:14 AM CST 5:16 PM CST
Nautical Twilight 5:44 AM CST 5:46 PM CST
Astronomical Twilight 5:14 AM CST 6:16 PM CST
Moon 2:55 PM CST (12/25) 4:16 AM CST (12/25)
Length of Visible Light 11h 01m
Length of Day
10h 08m
Waxing Gibbous, 94% of the Moon is Illuminated
Dec 25
Waxing Gibbous
Dec 28
Full
Jan 4
Last Quarter
Jan 11
New
Jan 18
First Quarter

Hourly Weather History & Observations

Time (CST) Temp. Dew Point Humidity Pressure Visibility Wind Dir Wind Speed Gust Speed Precip Events Conditions
8:50 AM - - N/A% 29.87 in - South 4.6 mph - N/A Thunderstorm Thunderstorm
8:58 AM 63.0 °F 62.1 °F 97% 29.86 in 1.2 mi NE 4.6 mph - N/A Rain , Thunderstorm Heavy Thunderstorms and Rain
9:06 AM 62.6 °F 60.8 °F 94% 29.87 in 3.0 mi ESE 5.8 mph - 0.04 in Rain , Thunderstorm Heavy Thunderstorms and Rain
9:17 AM 62.6 °F 60.8 °F 94% 29.86 in 2.5 mi SW 8.1 mph - 0.09 in Rain , Thunderstorm Heavy Thunderstorms and Rain
9:24 AM 62.6 °F 62.6 °F 100% 29.86 in 1.8 mi SSE 4.6 mph - 0.12 in Rain Heavy Rain
9:28 AM 62.6 °F 62.6 °F 100% 29.86 in 2.5 mi SE 4.6 mph - 0.12 in Rain Rain
9:31 AM 62.6 °F 62.6 °F 100% 29.86 in 4.0 mi ESE 3.5 mph - 0.12 in Rain Light Rain
9:58 AM 63.0 °F 62.1 °F 97% 29.91 in 9.0 mi East 5.8 mph - 0.12 in   Overcast
10:58 AM 64.0 °F 63.0 °F 96% 29.98 in 9.0 mi SSE 8.1 mph - 0.00 in Rain Light Rain
11:51 AM 66.2 °F 64.4 °F 94% 29.95 in 9.0 mi SSE 9.2 mph - 0.00 in   Overcast
11:58 AM 66.0 °F 64.0 °F 93% 29.95 in 10.0 mi SSE 6.9 mph - 0.00 in   Overcast
12:35 PM 69.8 °F 64.4 °F 83% 29.86 in 10.0 mi SSE 9.2 mph - N/A   Mostly Cloudy
12:48 PM 69.8 °F 64.4 °F 83% 29.84 in 10.0 mi SSE 11.5 mph 20.7 mph N/A   Mostly Cloudy
12:58 PM 70.0 °F 64.9 °F 84% 29.84 in 10.0 mi SSE 8.1 mph - N/A   Mostly Cloudy
1:03 PM 69.8 °F 64.4 °F 83% 29.84 in 10.0 mi SSE 9.2 mph - N/A   Mostly Cloudy
1:29 PM 69.8 °F 64.4 °F 83% 29.81 in 10.0 mi SSE 11.5 mph - N/A   Mostly Cloudy
1:58 PM 70.0 °F 64.0 °F 81% 29.81 in 10.0 mi South 6.9 mph - N/A   Mostly Cloudy
2:58 PM 70.0 °F 64.0 °F 81% 29.77 in 10.0 mi SSE 10.4 mph 18.4 mph 0.00 in   Overcast
3:58 PM 69.1 °F 64.0 °F 84% 29.75 in 10.0 mi SSE 8.1 mph - 0.00 in Rain Light Rain
4:22 PM 69.8 °F 64.4 °F 83% 29.72 in 10.0 mi South 10.4 mph - 0.00 in Rain Light Rain
4:58 PM 69.1 °F 64.0 °F 84% 29.72 in 10.0 mi South 11.5 mph 18.4 mph 0.00 in   Mostly Cloudy
5:58 PM 68.0 °F 64.0 °F 87% 29.68 in 10.0 mi South 12.7 mph 19.6 mph 0.00 in Rain Light Rain
6:58 PM 68.0 °F 64.0 °F 87% 29.69 in 10.0 mi South 16.1 mph 26.5 mph 0.00 in   Mostly Cloudy
7:10 PM 68.0 °F 64.4 °F 88% 29.69 in 10.0 mi South 17.3 mph 29.9 mph N/A   Mostly Cloudy
7:17 PM 69.8 °F 64.4 °F 83% 29.68 in 10.0 mi South 17.3 mph 29.9 mph N/A   Overcast
7:58 PM 68.0 °F 64.9 °F 90% 29.64 in 10.0 mi South 18.4 mph 26.5 mph N/A   Overcast
8:40 PM 69.8 °F 64.4 °F 83% 29.65 in 10.0 mi South 23.0 mph 33.4 mph N/A   Overcast
8:58 PM 70.0 °F 64.9 °F 84% 29.65 in 10.0 mi South 17.3 mph 38.0 mph N/A   Overcast
9:43 PM 71.6 °F 64.4 °F 78% 29.63 in 10.0 mi SSW 20.7 mph 41.4 mph 0.00 in Rain , Thunderstorm Light Thunderstorms and Rain
9:58 PM 69.1 °F 66.0 °F 90% 29.58 in 1.8 mi South 21.9 mph 38.0 mph 0.18 in Rain , Thunderstorm Heavy Thunderstorms and Rain
10:01 PM 69.8 °F 66.2 °F 88% 29.58 in 2.0 mi South 21.9 mph 32.2 mph 0.01 in Rain , Thunderstorm Heavy Thunderstorms and Rain
10:07 PM 69.8 °F 64.4 °F 83% 29.60 in 5.0 mi South 23.0 mph 35.7 mph 0.01 in Rain , Thunderstorm Light Thunderstorms and Rain
10:19 PM - - N/A% 29.58 in - South 21.9 mph 29.9 mph 0.05 in Rain , Thunderstorm Light Thunderstorms and Rain
10:58 PM 69.1 °F 64.9 °F 87% 29.56 in 5.0 mi South 23.0 mph 32.2 mph 0.10 in Rain , Thunderstorm Thunderstorms and Rain
11:13 PM 62.6 °F 60.8 °F 94% 29.57 in 0.5 mi WSW 12.7 mph 31.1 mph 0.55 in Fog , Rain , Thunderstorm Heavy Thunderstorms and Rain
11:19 PM 60.8 °F 57.2 °F 88% 29.57 in 0.8 mi SW 11.5 mph 31.1 mph 0.56 in Rain Light Rain
11:22 PM 62.6 °F 57.2 °F 82% 29.57 in 2.0 mi SW 11.5 mph 23.0 mph 0.56 in Rain Light Rain
11:26 PM 62.6 °F 57.2 °F 82% 29.56 in 10.0 mi SW 11.5 mph 19.6 mph 0.56 in Rain Light Rain
11:30 PM 62.6 °F 57.2 °F 82% 29.58 in 10.0 mi SW 9.2 mph 19.6 mph 0.56 in Rain Light Rain
11:58 PM 61.0 °F 55.0 °F 81% 29.55 in 10.0 mi SW 10.4 mph - 0.57 in   Overcast